DECAYED

OBJECT CQ, 58342 (Decayed)

Orbit data source: Space-Track

You're viewing an uncataloged RSO

Recently launched and/or uncataloged RSOs may have evolving metadata. Metadata may include the following, but is not limited to: Owner, Manufacturer, Bus, Motor, and Mission.

OBJECT CQ, 58342 was a satellite in LEO that was launched on Sat, 11 Nov 2023 UTC via an FALCON 9 launch vehicle from the Air Force Western Test Range (AFWTR). Unknown objects in Earth's orbit typically refer to objects detected orbiting the Earth but have not yet been identified or cataloged. These objects could be anything from previously untracked satellites, spent rocket stages, debris from satellite collisions, or even natural meteoroids temporarily captured by Earth's gravity. This object's orbit decayed before it could be identified.

Not visible in the next 10 days
Identifier
58342, 2023-174CQ
Orbit
Decayed
Country
Flag of TBDTBD
Related business
Manufacturer
Endurosat
Mission
Decayed Commercial Communications
Bus & Motor
CUBESAT 6UXL, Unknown motor
Mass
8.8 kg wet, 8.8 kg dry
Launch date (UTC)
2023-11-11 (3 years ago)
Launch vehicle
FALCON 9
Launch site
Air Force Western Test Range (AFWTR)
Object type
Unknown
Shape & HBR
Box + 2 Pan, 0.2 m
Radar Cross Section
0.080 m², Medium (>0.1 m² and < 1m²)

Expand to show TLE details & history
Last TLE update: 9 months ago

TLE from 9 months ago
0 OBJECT CQ
1 58342U 23174CQ  25343.23084317  .12447259  25172-5  56045-3 0  9993
2 58342  97.3805  77.1205 0008702 282.9726  77.0603 16.42607080117142
Epoch: 2025-12-09T05:32Z
TLE epoch observation values (Epoch: 2025-12-09T05:32:24.849Z)
Latitude
-0.00004°
Longitude
-84.20153°
Altitude
160.862 km
Speed
7.81 km/s
True Right ascension
05h 08m 28s
True Declination
0° 00' 00"
Sunlit
Object was in full shadow at epoch
Visualization orbit readout
Latitude
Unknown
Longitude
Unknown
Altitude
Unknown
Speed
Unknown
Apparent Right ascension
Unknown
Apparent Declination
Unknown
Sunlit
N/A
Visualization observer readout
Local Sidereal Time
19:31:48
Azimuth
Unknown
Elevation
Unknown
Doppler factor
Unknown
Orbital elements
Apogee altitude
161.366 km
Perigee altitude
149.994 km
Semi-major axis
6,533.817 km
Eccentricity
0.00087
Inclination
97.3805°
RAAN
77.1205°
Arg. of periapsis
282.9726°
True anomaly
77.15751°
Mean anomaly
77.0603°
Eccentric anomaly
77.1089°
Mean motion
4.10954 °/min
Orbital period
87.6 mins
BSTAR
0.00056045
Loading maneuver chart data...
Computing Atmospheric mass density...
Loading historical data...
Loading historical data...
Loading historical data...
Loading historical data...
Loading historical data...
Loading historical data...
Loading historical data...

Documentation

Showing up to 5 results
|